This demonstration page uses our WeatherBlox Daily Observations layout. Learn more.

Left ArrowRight Arrow

Hourly Observations for April 6, 2017

Temp ( °F °C ) Dew Point ( °F °C ) Humidity (%) Winds ( mph kmh ) Pressure ( in mb ) Visibility ( mi km ) Precip ( " mm )
12:15 am 00:15 Partly Cloudy 61 16 50 10 68 68 SE 8 13 29.74 1007 10 16 N/A
12:35 am 00:35 Partly Cloudy 61 16 50 10 68 68 SE 12 19 29.74 1007 10 16 N/A
12:55 am 00:55 Mostly Cloudy 61 16 50 10 68 68 SE 8 13 29.74 1007 10 16 N/A
1:15 am 01:15 Cloudy 61 16 50 10 68 68 SE 9 15 29.74 1007 10 16 N/A
1:35 am 01:35 Cloudy 61 16 50 10 68 68 SE 13 20 29.71 1006 10 16 N/A
1:55 am 01:55 Cloudy 59 15 50 10 72 72 SE 13 20 29.71 1006 10 16 N/A
2:15 am 02:15 Cloudy 59 15 50 10 72 72 SE 10 17 29.71 1006 10 16 N/A
2:35 am 02:35 Cloudy 59 15 50 10 72 72 ESE 8 13 29.71 1006 10 16 N/A
2:55 am 02:55 Cloudy 59 15 50 10 72 72 ESE 10 17 29.68 1005 10 16 N/A
3:15 am 03:15 Cloudy 59 15 50 10 72 72 SE 13 20 29.68 1005 10 16 N/A
3:35 am 03:35 Cloudy 59 15 50 10 72 72 ESE 10 17 29.68 1005 10 16 N/A
3:55 am 03:55 Cloudy 59 15 50 10 72 72 SE 8 13 29.68 1005 10 16 N/A
4:15 am 04:15 Cloudy with Nearby Thunderstorms 57 14 52 11 82 82 ESE 8 13 29.68 1005 10 16 N/A
4:35 am 04:35 Cloudy 57 14 52 11 82 82 ESE 5 7 29.68 1005 10 16 N/A
4:55 am 04:55 Cloudy with Light Rain 55 13 52 11 88 88 ESE 5 7 29.68 1005 10 16 N/A
5:15 am 05:15 Cloudy 55 13 54 12 94 94 E 5 7 29.65 1004 7 11 N/A
5:35 am 05:35 Cloudy 54 12 54 12 100 100 E 6 9 29.62 1003 10 16 N/A
5:55 am 05:55 Cloudy 54 12 54 12 100 100 ENE 9 15 29.56 1001 10 16 N/A
6:15 am 06:15 Cloudy 54 12 52 11 94 94 E 12 19 29.53 1000 10 16 N/A
6:35 am 06:35 Cloudy 54 12 52 11 94 94 E 12 19 29.53 1000 10 16 N/A
6:55 am 06:55 Cloudy 54 12 54 12 100 100 ESE 6 9 29.53 1000 10 16 N/A
7:15 am 07:15 Cloudy 54 12 54 12 100 100 SE 8 13 29.53 1000 7 11 N/A
7:35 am 07:35 Cloudy 54 12 54 12 100 100 SSE 6 9 29.56 1001 7 11 N/A
7:55 am 07:55 Cloudy with Nearby Thunderstorms 55 13 54 12 94 94 SE 7 11 29.56 1001 7 11 N/A
8:15 am 08:15 Cloudy with Heavy Rain 55 13 55 13 100 100 ESE 9 15 29.56 1001 3 5 0.06 1.52
8:35 am 08:35 Cloudy with Nearby Thunderstorms 55 13 55 13 100 100 SE 10 17 29.56 1001 3 5 0.12 3.05
8:55 am 08:55 Cloudy with Heavy Rain 55 13 55 13 100 100 SE 8 13 29.53 1000 3 5 0.18 4.57
9:15 am 09:15 Cloudy 55 13 55 13 100 100 ESE 14 22 29.47 998 2 3 0.12 3.05
9:35 am 09:35 Cloudy with Rain 59 15 59 15 100 100 SSE 3 6 29.47 998 3 5 0.18 4.57
9:55 am 09:55 Cloudy with Heavy Rain 59 15 59 15 100 100 SE 7 11 29.44 997 3 5 0.24 6.10
10:15 am 10:15 Cloudy with Heavy Rain 59 15 59 15 100 100 SE 15 24 29.41 996 7 11 0.02 0.51
10:35 am 10:35 Cloudy with Heavy Rain 59 15 59 15 100 100 SE 7 11 29.38 995 4 6 0.08 2.03
10:55 am 10:55 Cloudy with Light Rain 59 15 59 15 100 100 E 3 6 29.35 994 5 8 0.11 2.79
11:15 am 11:15 Cloudy 61 16 61 16 100 100 SE 8 13 29.35 994 10 16 N/A
11:35 am 11:35 Cloudy with Thunderstorms 61 16 61 16 100 100 SE 9 15 29.32 993 10 16 N/A
11:55 am 11:55 Cloudy with Rain 61 16 61 16 100 100 SE 8 13 29.32 993 5 8 0.03 0.76
12:15 pm 12:15 Cloudy 61 16 61 16 100 100 SSE 9 15 29.29 992 10 16 N/A
12:35 pm 12:35 Cloudy 61 16 61 16 100 100 SSE 10 17 29.29 992 10 16 0.01 0.25
12:55 pm 12:55 Cloudy 61 16 61 16 100 100 N N/A 29.26 991 10 16 0.01 0.25
1:15 pm 13:15 Cloudy with Thunderstorms 63 17 63 17 100 100 N N/A 29.26 991 10 16 N/A
1:35 pm 13:35 Cloudy 55 13 54 12 94 94 NNW 15 24 29.29 992 10 16 N/A
1:55 pm 13:55 Cloudy with Strong Thunderstorms 52 11 52 11 100 100 W 12 19 29.35 994 2 2 0.20 5.08
2:15 pm 14:15 Cloudy 52 11 52 11 100 100 N 10 17 29.29 992 5 8 0.08 2.03
2:35 pm 14:35 Cloudy with Light Rain 54 12 54 12 100 100 N 9 15 29.29 992 10 16 0.09 2.29
2:55 pm 14:55 Mostly Cloudy 54 12 54 12 100 100 NE 3 6 29.29 992 10 16 0.09 2.29
3:15 pm 15:15 Mostly Cloudy 54 12 54 12 100 100 NNE 6 9 29.29 992 10 16 N/A
3:35 pm 15:35 Cloudy with Light Rain 54 12 54 12 100 100 N 7 11 29.29 992 10 16 N/A
3:55 pm 15:55 Cloudy with Light Rain 54 12 54 12 100 100 WSW 6 9 29.32 993 5 8 0.01 0.25
4:15 pm 16:15 Cloudy with Heavy Rain 54 12 54 12 100 100 SW 7 11 29.32 993 5 8 0.03 0.76
4:35 pm 16:35 Cloudy with Rain 54 12 54 12 100 100 S 3 6 29.32 993 7 11 0.07 1.78
4:55 pm 16:55 Cloudy 54 12 54 12 100 100 SW 5 7 29.32 993 10 16 0.07 1.78
5:15 pm 17:15 Cloudy 55 13 55 13 100 100 W 3 6 29.32 993 10 16 0.01 0.25
5:35 pm 17:35 Cloudy 55 13 54 12 94 94 N N/A 29.32 993 10 16 0.01 0.25
5:55 pm 17:55 Cloudy with Light Rain 55 13 55 13 100 100 SSW 5 7 29.32 993 10 16 0.01 0.25
6:15 pm 18:15 Cloudy 57 14 55 13 94 94 WSW 5 7 29.35 994 10 16 N/A
6:35 pm 18:35 Cloudy with Light Rain 55 13 54 12 94 94 WNW 5 7 29.35 994 7 11 N/A
6:55 pm 18:55 Cloudy with Drizzle 55 13 54 12 94 94 N N/A 29.35 994 10 16 N/A
7:15 pm 19:15 Cloudy 55 13 54 12 94 94 N N/A 29.35 994 10 16 N/A
7:35 pm 19:35 Cloudy 55 13 54 12 94 94 WSW 5 7 29.35 994 10 16 N/A
7:55 pm 19:55 Cloudy 55 13 52 11 88 88 WNW 10 17 29.35 994 10 16 N/A
8:15 pm 20:15 Cloudy 54 12 46 8 77 77 W 10 17 29.38 995 10 16 N/A
8:35 pm 20:35 Mostly Cloudy 54 12 45 7 72 72 WNW 15 24 29.38 995 10 16 N/A
8:55 pm 20:55 Mostly Cloudy 54 12 45 7 72 72 WNW 20 31 29.38 995 10 16 N/A
9:15 pm 21:15 Cloudy 54 12 43 6 67 67 WNW 18 30 29.41 996 10 16 N/A
9:35 pm 21:35 Mostly Cloudy 52 11 41 5 67 67 W 16 26 29.41 996 10 16 N/A
9:55 pm 21:55 Mostly Cloudy 52 11 39 4 62 62 W 7 11 29.44 997 10 16 N/A
10:15 pm 22:15 Mostly Cloudy 52 11 36 2 54 54 W 16 26 29.44 997 10 16 N/A
10:35 pm 22:35 Cloudy 50 10 36 2 58 58 W 15 24 29.44 997 10 16 N/A
10:55 pm 22:55 Mostly Cloudy 50 10 36 2 58 58 W 12 19 29.44 997 10 16 N/A
11:15 pm 23:15 Partly Cloudy 50 10 36 2 58 58 W 7 11 29.44 997 10 16 N/A
11:35 pm 23:35 Mostly Cloudy 50 10 36 2 58 58 WSW 9 15 29.44 997 10 16 N/A
11:55 pm 23:55 Cloudy 50 10 36 2 58 58 WSW 10 17 29.44 997 10 16 N/A

Powered by AerisWeather